This is the latest recevied weather packets stored in our database for station/object WA6TJQ. If no packets are shown the sender has not sent any weather packets the latest 10 day(s).
| Time | Temp. | Humidity | Pressure | Rain* | Wind** | Luminosity | Snow |
|---|---|---|---|---|---|---|---|
| 1777931052 | 6.11° C | 74% | 1008.3 hPa | 0 mm | - | - | - |
| 1777930751 | 6.11° C | 76% | 1008.4 hPa | 0 mm | - | - | - |
| 1777930451 | 6.11° C | 75% | 1008.4 hPa | 0 mm | - | - | - |
| 1777930151 | 6.67° C | 76% | 1008.3 hPa | 0 mm | - | - | - |
| 1777929851 | 6.11° C | 79% | 1008.4 hPa | 0 mm | - | - | - |
| 1777929551 | 6.11° C | 77% | 1008.5 hPa | 0 mm | - | - | - |
| 1777929251 | 6.11° C | 78% | 1008.5 hPa | 0 mm | - | - | - |
| 1777928951 | 6.11° C | 80% | 1008.5 hPa | 0 mm | - | - | - |
| 1777928651 | 5.56° C | 79% | 1008.4 hPa | 0 mm | - | - | - |
| 1777928351 | 5.56° C | 80% | 1008.6 hPa | 0 mm | - | - | - |
| 1777928051 | 5.56° C | 82% | 1008.6 hPa | 0 mm | - | - | - |
| 1777927751 | 5.56° C | 84% | 1008.4 hPa | 0 mm | - | - | - |
| 1777927451 | 5° C | 84% | 1008.5 hPa | 0 mm | - | - | - |
| 1777927151 | 4.44° C | 85% | 1008.5 hPa | 0 mm | - | - | - |
| 1777926851 | 4.44° C | 85% | 1008.6 hPa | 0 mm | - | - | - |
| 1777926551 | 4.44° C | 85% | 1008.6 hPa | 0 mm | - | - | - |
| 1777926251 | 4.44° C | 86% | 1008.4 hPa | 0 mm | - | - | - |
| 1777925951 | 3.89° C | 85% | 1008.3 hPa | 0 mm | - | - | - |
| 1777925651 | 3.89° C | 86% | 1008.4 hPa | 0 mm | - | - | - |
| 1777925351 | 3.89° C | 86% | 1008.5 hPa | 0 mm | - | - | - |
| 1777925051 | 3.89° C | 86% | 1008.6 hPa | 0 mm | - | - | - |
| 1777924751 | 3.33° C | 85% | 1008.4 hPa | 0 mm | - | - | - |
| 1777924450 | 3.33° C | 86% | 1008.4 hPa | 0 mm | - | - | - |
| 1777924150 | 3.33° C | 86% | 1008.5 hPa | 0 mm | - | - | - |
| 1777923850 | 3.33° C | 86% | 1008.5 hPa | 0 mm | - | - | - |
* Rain latest hour (hover to see other rain measurements)
** Current wind speed in m/s (hover to see current wind gust speed)